Location: Bartlow
(52.0833°N, 0.3167°E)
Time: 11:38:27
(UTC+00:00)

Cosmos 371 Rocket - Pass Details

Date: 26 September 2023
Orbit: 682 x 695 km, 74.0° (Epoch: 28 November)

Event Time Altitude Azimuth Distance (km) Brightness Sun altitude
Exits shadow 03:32:01 41° 289° (WNW) 1,003 3.8 -21.3°
Maximum altitude 03:32:26 42° 304° (WNW) 988 3.8 -21.3°
Drops below altitude 10° 03:37:04 10° 15° (NNE) 2,160 6.4 -20.7°
Sets 03:39:30 0° 23° (NNE) 3,078 7.4 -20.3°
